This is the latest recevied weather packets stored in our database for station/object DK8RG-15. If no packets are shown the sender has not sent any weather packets the latest 10 day(s).
| Time | Temp. | Humidity | Pressure | Rain* | Wind** | Luminosity | Snow |
|---|---|---|---|---|---|---|---|
| 1778022620 | 11.11° C | 89% | 1002.6 hPa | 0 mm | - | - | - |
| 1778022020 | 11.11° C | 89% | 1002.6 hPa | 0 mm | - | - | - |
| 1778021420 | 11.11° C | 89% | 1002.5 hPa | 0 mm | - | - | - |
| 1778020821 | 11.11° C | 89% | 1002.5 hPa | 0 mm | - | - | - |
| 1778020219 | 11.11° C | - | - | 1.02 mm | - | - | - |
| 1778018438 | 11.11° C | 89% | 1003.5 hPa | 4.06 mm | - | - | - |
| 1778017816 | 11.11° C | 89% | 1003.5 hPa | 4.06 mm | - | - | - |
| 1778017217 | 11.11° C | 89% | 1003.5 hPa | 5.08 mm | - | - | - |
| 1778016620 | 11.11° C | - | - | 5.08 mm | - | - | - |
| 1778016016 | 11.11° C | 89% | 1003.5 hPa | 5.08 mm | - | - | - |
| 1778015416 | 11.11° C | 88% | 1002.5 hPa | 5.08 mm | - | - | - |
| 1778014816 | 11.67° C | - | - | 4.06 mm | - | - | - |
| 1778014215 | 11.67° C | 88% | 1003.5 hPa | 5.08 mm | - | - | - |
| 1778013616 | 11.11° C | 88% | 1003.5 hPa | 5.08 mm | - | - | - |
| 1778013016 | 11.11° C | 88% | 1003.4 hPa | 6.86 mm | - | - | - |
| 1778012417 | 11.67° C | 87% | 1003.5 hPa | 8.89 mm | - | - | - |
| 1778011817 | 12.22° C | 87% | 1003.5 hPa | 8.13 mm | - | - | - |
| 1778011216 | 12.22° C | 86% | 1004.4 hPa | 7.11 mm | - | - | - |
| 1778010617 | 12.22° C | 85% | 1004.4 hPa | 6.1 mm | - | - | - |
| 1778010017 | 12.22° C | 84% | 1004.3 hPa | 5.08 mm | - | - | - |
| 1778009416 | 12.22° C | 82% | 1004.3 hPa | 2.03 mm | - | - | - |
| 1778008817 | 14.44° C | 80% | 1003.5 hPa | 0 mm | - | - | - |
| 1778008217 | 15° C | 78% | 1003.2 hPa | 0 mm | - | - | - |
| 1778007617 | 15° C | 76% | 1002.5 hPa | 0 mm | - | - | - |
| 1778007025 | 15.56° C | 75% | 1002.6 hPa | 0 mm | - | - | - |
* Rain latest hour (hover to see other rain measurements)
** Current wind speed in m/s (hover to see current wind gust speed)